Home   Weather   Male   Past weeks

Flag for Maldives Past Weather in Male, Maldives — Yesterday and Last 2 Weeks

Now
82 °F

Passing clouds.


Feels Like: 91 °F
Forecast: 83 / 87 °F
Wind: 12 mph from Northwest

Location: Male Airport

Current Time: Sep 25, 2016 at 3:40:14 AM

Latest Report: Sep 25, 2016 at 2:00 AM


Visibility: N/A

Pressure: 29.80 "Hg

Humidity: 84%

Dew Point: 77 °F

Location of MaleLocation

Past Weather in Male — Graph

°F

Male Temperature Yesterday

Maximum temperature yesterday: 86 °F (at 10:00 AM)
Minimum temperature yesterday: 82 °F (at 1:00 AM)
Average temperature yesterday: 84 °F

High & Low Weather Summary for the Past Weeks

 TemperatureHumidityPressure
High88 °F (Sep 10, 11:00 AM)100% (Sep 18, 7:00 AM)29.95 "Hg (Sep 18, 7:00 AM)
Low75 °F (Sep 18, 7:00 AM)66% (Sep 10, 11:00 AM)29.74 "Hg (Sep 24, 2:00 PM)
Average84 °F80%29.85 "Hg
* Reported Sep 10 2:00 AM — Sep 25 2:00 AM, Male, Weather by CustomWeather, © 2016

Note: Actual official high and low records may vary slightly from our data, if they occured in-between our weather recording intervals... More about our weather records

Advertising

Male Weather History for the Previous 24 Hours

Scroll right to see more
 ConditionsComfort  
Time TempWeatherWind HumidityBarometerVisibility
2:00 AM
Sun, Sep 25
82 °FPassing clouds.12 mph84%29.80 "HgN/A
1:00 AM84 °FPassing clouds.9 mph84%29.80 "HgN/A
12:00 AM84 °FPassing clouds.13 mph84%29.83 "HgN/A
11:00 PM
Sat, Sep 24
84 °FPassing clouds.14 mph79%29.83 "HgN/A
10:00 PM84 °FPassing clouds.12 mph84%29.83 "HgN/A
9:00 PM84 °FPassing clouds.13 mph79%29.83 "HgN/A
8:00 PM84 °FPassing clouds.13 mph79%29.83 "HgN/A
7:00 PM84 °FPassing clouds.15 mph84%29.80 "HgN/A
6:00 PM84 °FPassing clouds.15 mph79%29.77 "HgN/A
5:00 PM84 °FPartly sunny.15 mph79%29.74 "HgN/A
4:00 PM86 °FPartly sunny.16 mph75%29.74 "HgN/A
3:00 PM84 °FBroken clouds.16 mph79%29.74 "HgN/A
2:00 PM86 °FPartly sunny.16 mph75%29.74 "HgN/A
1:00 PM86 °FBroken clouds.13 mph75%29.77 "HgN/A
12:00 PM86 °FPartly sunny.9 mph79%29.80 "HgN/A
11:00 AM86 °FPartly sunny.9 mph79%29.83 "HgN/A
10:00 AM86 °FScattered clouds.10 mph79%29.83 "HgN/A
9:00 AM84 °FScattered clouds.10 mph84%29.86 "HgN/A
8:00 AM82 °FPassing clouds.12 mph84%29.83 "HgN/A
7:00 AM84 °FPartly sunny.13 mph79%29.83 "HgN/A
6:00 AM82 °FPartly sunny.16 mph84%29.80 "HgN/A
5:00 AM82 °FPartly cloudy.16 mph84%29.80 "HgN/A
4:00 AM82 °FPartly cloudy.15 mph84%29.80 "HgN/A
3:00 AM82 °FPartly cloudy.14 mph84%29.80 "HgN/A
Weather by CustomWeather, © 2016

See weather overviewHow to use our weather pages